📊 Raw Sensor Data

Showing records 42601 to 42625 of 85,002 total

ID Distance (ft) Battery V Battery A Int Temp (°F) Int Humid (%) Ext Temp (°F) Solar V RSSI SNR Time Stamp
42414 14.4 4.00 -5 56 43 57 0.00 -76 8 06/03/2025 02:15 AM
42413 14.4 3.94 -5 56 43 57 0.00 -77 8 06/03/2025 02:00 AM
42412 14.5 3.94 -5 56 44 57 0.00 -73 8 06/03/2025 01:45 AM
42411 14.4 3.94 -5 57 44 57 0.00 -75 8 06/03/2025 01:30 AM
42410 14.5 4.00 -5 57 44 58 0.10 -77 8 06/03/2025 01:15 AM
42409 14.4 3.95 -5 58 44 59 0.10 -77 8 06/03/2025 01:00 AM
42408 14.4 3.95 -5 58 44 59 0.00 -74 8 06/03/2025 12:45 AM
42407 14.4 3.95 -5 58 44 59 0.00 -74 7 06/03/2025 12:30 AM
42406 14.4 3.95 -5 58 44 59 0.00 -77 8 06/03/2025 12:15 AM
42405 14.4 4.01 -5 58 44 59 0.00 -73 8 06/03/2025 12:00 AM
42404 14.4 4.01 -5 59 44 60 0.00 -78 8 06/02/2025 11:45 PM
42403 14.4 3.95 -5 59 45 60 0.00 -77 8 06/02/2025 11:30 PM
42402 14.4 3.95 -5 59 45 60 0.10 -75 8 06/02/2025 11:15 PM
42401 14.4 3.95 -5 59 45 60 0.00 -76 8 06/02/2025 11:00 PM
42400 14.4 3.95 -5 60 45 61 0.00 -76 8 06/02/2025 10:45 PM
42399 14.4 4.01 -5 60 46 61 0.00 -77 8 06/02/2025 10:30 PM
42398 14.4 3.96 -5 61 46 61 0.00 -71 8 06/02/2025 10:15 PM
42397 14.4 3.96 -5 61 46 62 0.00 -67 8 06/02/2025 10:00 PM
42396 14.4 3.96 -5 62 48 63 0.00 -70 8 06/02/2025 09:30 PM
42395 14.8 3.96 -5 64 50 63 0.10 -68 8 06/02/2025 09:00 PM
42394 14.8 3.96 -5 65 51 64 0.60 -76 8 06/02/2025 08:45 PM
42393 14.8 4.01 -9 67 53 65 1.60 -76 7 06/02/2025 08:30 PM
42392 14.8 3.96 -5 69 53 66 4.50 -77 7 06/02/2025 08:15 PM
42391 14.9 3.98 0 73 53 69 4.50 -73 8 06/02/2025 08:00 PM
42390 14.9 4.04 6 77 52 71 4.50 -79 7 06/02/2025 07:45 PM